Paducah, KY

10:01 PM CDT on March 25, 2017 (GMT -0500)
Barkley Regional

Weather History for KPAH - October, 2010

Change the Weather History Date:

Thursday, October 14, 2010

  Actual Average Record
Temperature  
Mean Temperature 58 °F 59 °F  
Max Temperature 72 °F 72 °F 88 °F (1940)
Min Temperature 44 °F 47 °F 30 °F (1979)
Degree Days  
Heating Degree Days 7 7  
Month to date heating degree days 66 76  
Since 1 July heating degree days 80 115  
Cooling Degree Days 0 1  
Month to date cooling degree days 15 25  
Year to date cooling degree days 1995 1525  
Growing Degree Days 8 (Base 50)    
Moisture  
Dew Point 35 °F    
Average Humidity 46    
Maximum Humidity 71    
Minimum Humidity 20    
Precipitation  
Precipitation 0.00 in 0.12 in 1.97 in (1974)
Month to date precipitation 0.10 1.82  
Year to date precipitation 28.84 38.05  
Snow  
Snow 0.00 in 0.00 in 0.00 in (2002)
Month to date snowfall 0.0 0.0  
Since 1 July snowfall 0.0 0.0  
Since 1 September snowfall 0.0 0.0  
Snow Depth 0.00 in    
Sea Level Pressure  
Sea Level Pressure 30.11 in    
Wind  
Wind Speed 6 mph (WNW)    
Max Wind Speed 14 mph    
Max Gust Speed 23 mph    
Visibility 10 miles    
Events      
T = Trace of Precipitation, MM = Missing Value Source: NWS Daily Summary

Daily Weather History Graph

Daily Weather History Graph

Search for Another Location

Airport or City:

Trip Planner

Search our weather history database for the weather conditions in past years. The results will help you decide how hot, cold, wet, or windy it might be!

Date:

Astronomy

Oct. 14, 2010 Rise Set
Actual Time 7:01 AM CDT 6:19 PM CDT
Civil Twilight 6:35 AM CDT 6:45 PM CDT
Nautical Twilight 6:05 AM CDT 7:15 PM CDT
Astronomical Twilight 5:35 AM CDT 7:45 PM CDT
Moon 1:56 PM CDT (10/14) No Moon Set
Length of Visible Light 12h 10m
Length of Day
11h 17m
Waxing Crescent, 48% of the Moon is Illuminated
Oct 14
Waxing Crescent
Oct 14
First Quarter
Oct 22
Full
Oct 30
Last Quarter
Nov 5
New

Hourly Weather History & Observations

Time (CDT) Temp. Windchill Dew Point Humidity Pressure Visibility Wind Dir Wind Speed Gust Speed Precip Events Conditions
12:53 AM 55.0 °F - 37.9 °F 53% 30.13 in 10.0 mi North 8.1 mph - N/A   Clear
1:53 AM 55.0 °F - 37.9 °F 53% 30.15 in 10.0 mi NNW 6.9 mph - N/A   Clear
2:53 AM 52.0 °F - 37.9 °F 59% 30.15 in 10.0 mi North 5.8 mph - N/A   Clear
3:53 AM 48.0 °F - 37.9 °F 68% 30.15 in 10.0 mi West 3.5 mph - N/A   Clear
4:53 AM 46.9 °F - 37.0 °F 68% 30.16 in 10.0 mi West 3.5 mph - N/A   Clear
5:53 AM 46.4 °F 44.3 °F 37.4 °F 71% 30.18 in 10.0 mi West 4.6 mph - N/A   Clear
6:53 AM 45.0 °F 42.6 °F 36.0 °F 71% 30.18 in 10.0 mi West 4.6 mph - N/A   Clear
7:53 AM 48.0 °F - 37.9 °F 68% 30.19 in 10.0 mi WNW 4.6 mph - N/A   Clear
8:53 AM 54.0 °F - 39.9 °F 59% 30.21 in 10.0 mi WNW 4.6 mph - N/A   Clear
9:53 AM 60.1 °F - 37.9 °F 44% 30.21 in 10.0 mi North 8.1 mph - N/A   Clear
10:53 AM 64.9 °F - 34.0 °F 32% 30.20 in 10.0 mi North 5.8 mph - N/A   Clear
11:53 AM 69.1 °F - 30.9 °F 24% 30.18 in 10.0 mi Variable 4.6 mph - N/A   Clear
12:53 PM 69.1 °F - 30.0 °F 23% 30.15 in 10.0 mi NNE 10.4 mph - N/A   Clear
1:53 PM 70.0 °F - 28.0 °F 21% 30.12 in 10.0 mi NW 8.1 mph - N/A   Clear
2:53 PM 70.0 °F - 28.0 °F 21% 30.09 in 10.0 mi Variable 3.5 mph - N/A   Clear
3:53 PM 71.1 °F - 28.9 °F 21% 30.07 in 10.0 mi West 11.5 mph 17.3 mph N/A   Clear
4:53 PM 70.0 °F - 30.0 °F 23% 30.05 in 10.0 mi West 6.9 mph - N/A   Clear
5:53 PM 66.0 °F - 33.1 °F 29% 30.03 in 10.0 mi WSW 5.8 mph - N/A   Clear
6:53 PM 63.0 °F - 33.1 °F 33% 30.02 in 10.0 mi SSW 4.6 mph - N/A   Clear
7:53 PM 59.0 °F - 36.0 °F 42% 30.02 in 10.0 mi SW 4.6 mph - N/A   Clear
8:53 PM 57.0 °F - 36.0 °F 45% 30.01 in 10.0 mi SW 5.8 mph - N/A   Clear
9:53 PM 55.9 °F - 36.0 °F 47% 30.00 in 10.0 mi SW 5.8 mph - N/A   Clear
10:53 PM 53.6 °F - 35.6 °F 51% 30.00 in 10.0 mi SW 6.9 mph - N/A   Clear
11:53 PM 54.0 °F - 37.0 °F 53% 29.98 in 10.0 mi WSW 9.2 mph - N/A   Clear